TimeMST,TemperatureF,Dew PointF,Humidity,Sea Level PressureIn,VisibilityMPH,Wind Direction,Wind SpeedMPH,Gust SpeedMPH,PrecipitationIn,Events,Conditions,WindDirDegrees,DateUTC
12:53 AM,41.0,27.0,57,29.84,10.0,Calm,Calm,-,N/A,,Clear,0,2013-02-08 07:53:00
1:53 AM,41.0,27.0,57,29.82,10.0,South,4.6,-,N/A,,Clear,180,2013-02-08 08:53:00
2:53 AM,44.1,28.9,55,29.77,10.0,SE,18.4,-,N/A,,Clear,140,2013-02-08 09:53:00
3:53 AM,42.1,30.0,62,29.75,10.0,SE,17.3,24.2,N/A,,Clear,130,2013-02-08 10:53:00
4:53 AM,39.9,30.9,70,29.73,10.0,ESE,10.4,-,N/A,,Clear,110,2013-02-08 11:53:00
5:53 AM,44.1,28.9,55,29.72,10.0,South,12.7,20.7,N/A,,Clear,190,2013-02-08 12:53:00
6:53 AM,45.0,28.9,53,29.71,10.0,SSW,17.3,28.8,N/A,,Scattered Clouds,200,2013-02-08 13:53:00
7:53 AM,43.0,30.9,62,29.74,10.0,SSW,19.6,26.5,N/A,,Scattered Clouds,210,2013-02-08 14:53:00
8:53 AM,43.0,28.9,58,29.75,10.0,SSW,20.7,39.1,N/A,,Scattered Clouds,200,2013-02-08 15:53:00
10:53 AM,46.0,28.0,50,29.76,10.0,SSW,24.2,34.5,N/A,,Scattered Clouds,200,2013-02-08 17:53:00
11:53 AM,46.9,25.0,42,29.75,10.0,SSW,26.5,38.0,N/A,,Scattered Clouds,200,2013-02-08 18:53:00
12:53 PM,46.9,21.9,37,29.72,10.0,South,18.4,32.2,N/A,,Scattered Clouds,190,2013-02-08 19:53:00
1:53 PM,48.0,17.1,29,29.69,10.0,SSW,23.0,31.1,N/A,,Scattered Clouds,210,2013-02-08 20:53:00
2:53 PM,48.0,9.0,21,29.67,10.0,SSW,18.4,33.4,N/A,,Partly Cloudy,210,2013-02-08 21:53:00
3:53 PM,46.0,10.9,24,29.68,10.0,SSW,18.4,27.6,N/A,,Scattered Clouds,200,2013-02-08 22:53:00
4:53 PM,44.1,3.9,19,29.69,10.0,SSW,16.1,26.5,N/A,,Clear,210,2013-02-08 23:53:00
5:53 PM,41.0,-0.0,18,29.68,10.0,SW,13.8,28.8,N/A,,Scattered Clouds,220,2013-02-09 00:53:00
6:53 PM,37.9,7.0,28,29.70,10.0,SW,16.1,-,N/A,,Clear,230,2013-02-09 01:53:00
7:53 PM,36.0,15.1,43,29.71,10.0,WSW,10.4,-,N/A,,Clear,240,2013-02-09 02:53:00
8:53 PM,34.0,17.1,50,29.72,10.0,SSW,10.4,-,N/A,,Clear,210,2013-02-09 03:53:00
9:53 PM,33.1,19.9,59,29.71,10.0,SSW,4.6,-,N/A,,Partly Cloudy,200,2013-02-09 04:53:00
10:53 PM,32.0,21.0,64,29.69,10.0,South,5.8,-,N/A,,Overcast,190,2013-02-09 05:53:00
11:41 PM,32.0,26.6,80,29.75,2.5,SW,5.8,-,0.00,Snow,Light Snow,220,2013-02-09 06:41:00
11:50 PM,30.2,26.6,86,29.75,1.5,SSW,5.8,-,0.00,Snow,Light Snow,200,2013-02-09 06:50:00
11:53 PM,30.9,27.0,85,29.68,1.5,South,5.8,-,0.00,Snow,Light Snow,190,2013-02-09 06:53:00